FW5156 Weather Reports


Display with metric or nautical units.
time (UTC)temp
F
wind
direction
speed
MPH
gust
MPH
rain 1hr
in
rain 24hr
in
rain mn
in
humidity
%
barometer
mb
20260904035516 80 0.0 0.0 0.00 0.00 0.00 83 1016.1
20260904034536 80 0.0 0.0 0.00 0.00 0.00 84 1016.0
20260904033516 80 0.0 0.0 0.00 0.00 0.00 85 1016.0
20260904032516 80 0.0 0.0 0.00 0.00 0.00 85 1016.1
20260904031537 81 0.0 0.0 0.00 0.00 0.00 85 1016.1
20260904030536 81 0.0 0.0 0.00 0.00 0.00 85 1016.2
20260904025537 81 0.0 0.0 0.00 0.00 0.00 84 1016.3
20260904024516 81 0.0 0.0 0.00 0.00 0.00 83 1016.3
20260904023536 81 0.0 0.0 0.00 0.00 0.00 83 1016.3
20260904022516 82 0.0 0.0 0.00 0.00 0.00 82 1016.2
20260904021536 82 0.0 0.0 0.00 0.00 0.00 81 1016.2
20260904020516 82 0.0 0.0 0.00 0.00 0.00 81 1016.1
20260904015516 82 0.0 0.0 0.00 0.00 0.00 80 1016.0
20260904014517 82 0.0 0.0 0.00 0.00 0.00 80 1016.0
20260904013537 82 0.0 0.0 0.00 0.00 0.00 79 1015.9
20260904012516 82 0.0 0.0 0.00 0.00 0.00 78 1015.7
20260904011516 82 0.0 0.0 0.00 0.00 0.00 78 1015.6
20260904010517 82 0.0 0.0 0.00 0.00 0.00 78 1015.5
20260904005556 83 0.0 0.0 0.00 0.00 0.00 78 1015.5
20260904004516 83 0.0 0.0 0.00 0.00 0.00 77 1015.5
20260904003516 83 0.0 0.0 0.00 0.00 0.00 76 1015.3
20260904002516 83 0.0 0.0 0.00 0.00 0.00 78 1015.1
20260904001516 84 0.0 0.0 0.00 0.00 0.00 77 1015.1
20260904000517 84 0.0 0.0 0.00 0.00 0.00 76 1015.0
20260903235516 85 0.0 0.0 0.00 0.00 0.00 76 1015.1
20260903234516 86 0.0 0.0 0.00 0.00 0.00 74 1015.0
20260903233516 87 0.0 0.0 0.00 0.00 0.00 74 1015.1
20260903232516 88 0.0 0.0 0.00 0.00 0.00 73 1015.1
20260903231516 90 0.0 0.0 0.00 0.00 0.00 70 1015.1
20260903230516 92 0.0 0.0 0.00 0.00 0.00 67 1015.1
20260903225517 94 0.0 0.0 0.00 0.00 0.00 62 1015.1
20260903224516 95 0.0 0.0 0.00 0.00 0.00 61 1015.2
20260903223556 94 0.0 0.0 0.00 0.00 0.00 61 1015.2
20260903222516 94 0.0 2.0 0.00 0.00 0.00 58 1015.1
20260903221536 94 0.0 0.0 0.00 0.00 0.00 61 1015.1
20260903220517 95 0.0 2.0 0.00 0.00 0.00 58 1015.1
20260903215517 95 0.0 2.0 0.00 0.00 0.00 55 1015.2
20260903214536 96 0.0 1.0 0.00 0.00 0.00 54 1015.2
20260903213516 95 0.0 2.0 0.00 0.00 0.00 54 1015.1
20260903212516 95 0.0 3.0 0.00 0.00 0.00 55 1015.3
20260903211536 95 0.0 2.0 0.00 0.00 0.00 58 1015.3
20260903210516 95 0.0 5.0 0.00 0.00 0.00 55 1015.4
20260903205516 95 0.0 5.0 0.00 0.00 0.00 55 1015.6
20260903204516 95 180 1.0 6.0 0.00 0.00 0.00 54 1015.6
20260903203516 95 293 2.0 8.0 0.00 0.00 0.00 53 1015.7
20260903202516 96 225 1.0 6.0 0.00 0.00 0.00 53 1015.8
20260903201516 97 0.0 2.0 0.00 0.00 0.00 52 1015.9
20260903200537 96 0.0 3.0 0.00 0.00 0.00 54 1016.0
20260903195516 95 225 1.0 7.0 0.00 0.00 0.00 56 1016.2
20260903194517 96 248 1.0 5.0 0.00 0.00 0.00 52 1016.2
20260903193516 96 0.0 4.0 0.00 0.00 0.00 54 1016.3
20260903192516 96 0.0 4.0 0.00 0.00 0.00 53 1016.4
20260903191517 95 315 1.0 4.0 0.00 0.00 0.00 53 1016.6
20260903190516 94 248 1.0 6.0 0.00 0.00 0.00 54 1016.6
20260903185517 95 293 2.0 6.0 0.00 0.00 0.00 54 1016.6
20260903184516 94 338 3.0 10.0 0.00 0.00 0.00 56 1016.7
20260903183516 94 293 1.0 9.0 0.00 0.00 0.00 53 1016.8
20260903182516 94 248 2.0 9.0 0.00 0.00 0.00 57 1016.8
20260903181516 94 248 1.0 10.0 0.00 0.00 0.00 57 1016.8
20260903180516 93 270 2.0 7.0 0.00 0.00 0.00 55 1016.8
20260903175517 93 0.0 3.0 0.00 0.00 0.00 58 1016.9
20260903174536 93 248 2.0 7.0 0.00 0.00 0.00 56 1017.1
20260903173517 93 180 1.0 8.0 0.00 0.00 0.00 62 1017.1
20260903172516 92 203 2.0 7.0 0.00 0.00 0.00 60 1017.2
20260903171516 92 0.0 3.0 0.00 0.00 0.00 62 1017.2
20260903170516 92 0.0 3.0 0.00 0.00 0.00 63 1017.3
20260903165536 91 0.0 3.0 0.00 0.00 0.00 63 1017.5
20260903164536 91 203 1.0 8.0 0.00 0.00 0.00 64 1017.5
20260903163517 91 0.0 4.0 0.00 0.00 0.00 63 1017.7
20260903162516 91 293 2.0 9.0 0.00 0.00 0.00 64 1017.8
20260903161537 91 293 1.0 8.0 0.00 0.00 0.00 68 1017.9
20260903160516 90 0.0 8.0 0.00 0.00 0.00 66 1017.8
20260903155517 89 248 1.0 4.0 0.00 0.00 0.00 69 1017.9
20260903154517 89 293 1.0 4.0 0.00 0.00 0.00 71 1017.7
20260903153516 88 203 1.0 6.0 0.00 0.00 0.00 68 1017.7
20260903152516 88 0.0 3.0 0.00 0.00 0.00 71 1017.7
20260903151516 87 0.0 3.0 0.00 0.00 0.00 71 1017.7
20260903150516 86 0.0 4.0 0.00 0.00 0.00 71 1017.6
20260903145517 86 0.0 4.0 0.00 0.00 0.00 72 1017.6
20260903144536 86 315 1.0 5.0 0.00 0.00 0.00 73 1017.6
20260903143517 85 0.0 2.0 0.00 0.00 0.00 74 1017.5
20260903142536 84 0.0 3.0 0.00 0.00 0.00 75 1017.4
20260903141516 83 0.0 2.0 0.00 0.00 0.00 76 1017.6
20260903140536 83 0.0 3.0 0.00 0.00 0.00 77 1017.6
20260903135517 82 0.0 4.0 0.00 0.00 0.00 79 1017.6
20260903134517 81 0.0 2.0 0.00 0.00 0.00 79 1017.7
20260903133516 81 0.0 1.0 0.00 0.00 0.00 81 1017.7
20260903132516 80 0.0 2.0 0.00 0.00 0.00 82 1017.8
20260903131537 79 0.0 0.0 0.00 0.00 0.00 83 1017.8
20260903130516 78 0.0 3.0 0.00 0.00 0.00 85 1017.8
20260903125517 77 0.0 3.0 0.00 0.00 0.00 86 1017.8
20260903124516 76 0.0 0.0 0.00 0.00 0.00 87 1017.8
20260903122516 75 0.0 2.0 0.00 0.00 0.00 87 1017.9
20260903121516 75 0.0 3.0 0.00 0.00 0.00 87 1017.8
20260903120517 75 0.0 0.0 0.00 0.00 0.00 87 1017.9
20260903115516 75 0.0 1.0 0.00 0.00 0.00 88 1017.8
20260903114516 75 0.0 0.0 0.00 0.00 0.00 88 1017.7
20260903113517 75 0.0 1.0 0.00 0.00 0.00 88 1017.7
20260903112516 75 0.0 0.0 0.00 0.00 0.00 88 1017.7
20260903111516 75 0.0 0.0 0.00 0.00 0.00 88 1017.5
20260903110517 75 0.0 0.0 0.00 0.00 0.00 88 1017.5
20260903105536 75 0.0 0.0 0.00 0.00 0.00 87 1017.5
20260903104516 75 0.0 1.0 0.00 0.00 0.00 88 1017.4
20260903103517 75 0.0 0.0 0.00 0.00 0.00 87 1017.4
20260903102516 75 0.0 0.0 0.00 0.00 0.00 87 1017.3
20260903101517 76 0.0 0.0 0.00 0.00 0.00 87 1017.4
20260903100516 76 0.0 0.0 0.00 0.00 0.00 86 1017.4
20260903095517 76 0.0 0.0 0.00 0.00 0.00 85 1017.3
20260903094517 76 0.0 0.0 0.00 0.00 0.00 84 1017.3
20260903093517 77 0.0 1.0 0.00 0.00 0.00 84 1017.2
20260903092517 77 0.0 0.0 0.00 0.00 0.00 83 1017.2
20260903091517 77 0.0 0.0 0.00 0.00 0.00 82 1017.3
20260903090516 78 0.0 3.0 0.00 0.00 0.00 81 1017.3
20260903085536 78 0.0 0.0 0.00 0.00 0.00 80 1017.2
20260903084516 79 0.0 0.0 0.00 0.00 0.00 79 1017.2
20260903083517 79 0.0 3.0 0.00 0.00 0.00 79 1017.3
20260903082557 79 0.0 1.0 0.00 0.00 0.00 79 1017.3
20260903081516 79 0.0 0.0 0.00 0.00 0.00 79 1017.4
20260903080517 79 0.0 2.0 0.00 0.00 0.00 79 1017.2
20260903075517 79 0.0 3.0 0.00 0.00 0.00 79 1017.2
20260903074516 79 0.0 0.0 0.00 0.00 0.00 79 1017.2
20260903073517 79 0.0 0.0 0.00 0.00 0.00 79 1017.1
20260903072536 79 0.0 2.0 0.00 0.00 0.00 79 1017.1
20260903071516 79 0.0 2.0 0.00 0.00 0.00 79 1017.1
20260903070517 79 0.0 0.0 0.00 0.00 0.00 80 1017.1
20260903065537 79 0.0 3.0 0.00 0.00 0.00 80 1017.1
20260903064556 79 0.0 1.0 0.00 0.00 0.00 81 1017.2
20260903063516 79 0.0 0.0 0.00 0.00 0.00 80 1017.2
20260903062517 79 0.0 0.0 0.00 0.00 0.00 80 1017.3
20260903061516 80 0.0 0.0 0.00 0.00 0.00 80 1017.1
20260903060517 80 0.0 1.0 0.00 0.00 0.00 80 1017.1
20260903055516 80 0.0 2.0 0.00 0.00 0.00 81 1017.1
20260903053516 80 0.0 3.0 0.00 0.00 0.00 81 1017.0
20260903052516 80 0.0 0.0 0.00 0.00 0.00 81 1017.0
20260903051557 80 0.0 2.0 0.00 0.00 0.00 81 1017.0
20260903050536 80 0.0 0.0 0.00 0.00 0.00 81 1016.9
20260903045517 80 248 1.0 6.0 0.00 0.00 0.00 82 1016.9
20260903044516 80 0.0 0.0 0.00 0.00 0.00 82 1016.8
20260903043516 80 0.0 2.0 0.00 0.00 0.00 82 1016.7
20260903042517 80 0.0 1.0 0.00 0.00 0.00 81 1016.7
20260903041517 81 0.0 0.0 0.00 0.00 0.00 81 1016.7
20260903040537 81 0.0 3.0 0.00 0.00 0.00 81 1016.6